Location: Devore Heights
(34.2372°N, 117.4156°W)
Time: 03:33:56
(UTC+00:00)

deb Explorer IX - Pass Details

Date: 21 September 2024
Orbit: 504 x 828 km, 38.7° (Epoch: 05 October)

Event Time Altitude Azimuth Distance (km) Brightness Sun altitude
Rises 03:49:32 0° 282° (WNW) 3,367 ? -25.4°
Reaches altitude 10° 03:52:06 10° 287° (WNW) 2,457 ? -25.9°
Maximum altitude 03:57:55 57° 5° (N) 997 ? -27.1°
Enters shadow 03:58:34 54° 32° (NNE) 1,027 ? -27.2°
Drops below altitude 10° 04:03:43 10° 84° (E) 2,452 - -28.2°
Sets 04:06:16 0° 89° (E) 3,360 - -28.7°
